Regional Weather Roundup
Issued by NWS

Home | Current Version | Previous Version | Text Only | Print | Product List | Glossary Off
Versions: 1 2 3 4 5 6 7 8 9 10 11 12 13 14 15 16 17 18 19 20 21 22 23 24 25 26 27 28 29 30 31 32 33 34 35 36 37 38 39 40 41 42 43 44 45 46 47 48 49 50

372
ASUS45 KCYS 240110
RWRWY

WYOMING REGIONAL WEATHER ROUNDUP
NATIONAL WEATHER SERVICE CHEYENNE WY
700 PM MDT MON APR 23 2018

NOTE:  "FAIR" INDICATES FEW OR NO CLOUDS BELOW 12,000 FEET
WITH NO SIGNIFICANT WEATHER AND/OR OBSTRUCTIONS TO VISIBILITY.

WYZ001-240200-
YELLOWSTONE NATIONAL PARK

CITY           SKY/WX    TMP DP  RH WIND       PRES   REMARKS
LK YELLOWSTONE   N/A     30  23  75 MISG      30.33R
W YELLOWSTONE  NOT AVBL

$$
WYZ002>013-054>058-071-098>099-240200-
NORTHERN WYOMING

CITY           SKY/WX    TMP DP  RH WIND       PRES   REMARKS
JACKSON        CLOUDY    40  32  73 E9        30.25R WCI  34
CODY           CLOUDY    36  28  73 N14       30.39R WCI  27
GREYBULL       FAIR      41  31  67 NW29G37   30.30R
WORLAND        CLOUDY    43  33  68 NW21G31   30.31R
SHERIDAN       CLOUDY    36  33  89 NW25G32   30.37R WCI  24
BUFFALO        CLOUDY    35  28  75 NW23G32   30.33R WCI  23
GILLETTE       LGT SNOW  33  32  96 NW17      30.30R VSB 3/4 WCI  22
HULETT         LGT SNOW  32  32 100 NW8G21    30.27R WCI  25
NEWCASTLE      CLOUDY    34  32  93 NW28G38   30.21R WCI  20

$$
WYZ014>020-022>026-101>103-240200-
CENTRAL WYOMING

CITY           SKY/WX    TMP DP  RH WIND       PRES   REMARKS
BIG PINEY      FAIR      47  21  35 N16       30.21R
PINEDALE       FAIR      45  23  42 NW18G29   30.21R
DUBOIS         LGT SNOW  32  30  93 E6        30.24R WCI  26
LANDER         CLOUDY    34  31  88 S5        30.29R FOG     WCI  30
RIVERTON       LGT SNOW  34  29  82 N16G28    30.27S WCI  24
CASPER         CLOUDY    36  30  79 NE20      30.28R WCI  25
DOUGLAS        CLOUDY    39  30  70 NW29G38   30.24R WCI  27

$$
WYZ021-027>030-104>119-240200-
SOUTHERN WYOMING

CITY           SKY/WX    TMP DP  RH WIND       PRES   REMARKS
EVANSTON       FAIR      52  20  28 NW15      30.21R
KEMMERER       FAIR      45  19  36 NW16G23   30.22R
FORT BRIDGER   FAIR      52  20  27 NW14G24   30.22S
ROCK SPRINGS   FAIR      53  13  20 NW18G32   30.16R
DIXON          MOCLDY    56  30  36 NW6       30.13R
RAWLINS        CLOUDY    45  29  53 N21G29    30.17R
SARATOGA       CLOUDY    48  32  53 NW18      30.15R
LARAMIE        FAIR      43  37  79 NE7       30.12F
CHEYENNE       LGT RAIN  46  43  89 MISG      30.09R FOG
TORRINGTON     CLOUDY    45  42  89 N20G35    30.13R
PINE BLUFFS    CLOUDY    52  46  82 CALM      30.07R THUNDER

$$




USA.gov is the U.S. government's official web portal to all federal, state and local government web resources and services.